Regional Weather Roundup
Issued by NWS

Home | Current Version | Previous Version | Text Only | Print | Product List | Glossary On
Versions: 1 2 3 4 5 6 7 8 9 10 11 12 13 14 15 16 17 18 19 20 21 22 23 24 25 26 27 28 29 30 31 32 33 34 35 36 37 38 39 40 41 42 43 44 45 46 47 48 49 50
165
ASUS43 KLSX 210257
RWRMO

WEATHER SUMMARY FOR MISSOURI
NATIONAL WEATHER SERVICE SPRINGFIELD MO
900 PM CST MON FEB 20 2017

NOTE: "FAIR" INDICATES FEW OR NO CLOUDS BELOW 12,000 FEET WITH NO
       SIGNIFICANT WEATHER AND/OR OBSTRUCTIONS TO VISIBILITY.
       CURRENT SKY AND/OR WEATHER CONDITIONS ARE NOT AVAILABLE FOR
       CHILLICOTHE AND FARMINGTON.

MOZ001>031-035>038-043-044-053-054-210400-
...NORTHERN AND WESTERN MISSOURI...

CITY           SKY/WX    TMP DP  RH WIND       PRES   REMARKS
KANSAS CTY INT CLOUDY    59  52  77 SW7       29.91R
LEE`S SUMMIT   MOCLDY    59  52  77 SW7       29.91S
ST JOSEPH      MOCLDY    59  53  80 W7        29.91R
CHILLICOTHE      N/A     58  56  93 CALM      29.90S

$$
MOZ066>068-077>081-088>096-101>105-210400-
...SOUTHWEST MISSOURI...

CITY           SKY/WX    TMP DP  RH WIND       PRES   REMARKS
SPRINGFIELD    CLOUDY    58  54  86 SW5       29.94R
JOPLIN         CLOUDY    60  54  80 SW9       29.94R
BRANSON        LGT RAIN  59  55  88 CALM      29.95R

$$
MOZ032>034-039>042-045>050-055>058-069>072-210400-
...CENTRAL MISSOURI...

CITY           SKY/WX    TMP DP  RH WIND       PRES   REMARKS
COLUMBIA       NOT AVBL
JEFFERSON CITY CLOUDY    63  61  93 CALM      29.91R
ROLLA          RAIN      60  59  96 SE5       29.92S
SEDALIA        CLOUDY    62  56  80 SW5       29.93R
WARRENSBURG    MOCLDY    57  52  82 S5        29.92R

$$
MOZ051-052-059>065-210400-
...EAST CENTRAL MISSOURI...

CITY           SKY/WX    TMP DP  RH WIND       PRES   REMARKS
ST LOUIS INTL  CLOUDY    68  55  63 SE12      29.92S

$$
MOZ072>076-082>087-097>100-106>115-210400-
...SOUTH CENTRAL AND SOUTHEAST MISSOURI...

CITY           SKY/WX    TMP DP  RH WIND       PRES   REMARKS
CAPE GIRARDEAU CLOUDY    64  51  62 SE13      29.94F
POPLAR BLUFF   PTCLDY    63  55  75 E5        29.92F
WEST PLAINS    LGT RAIN  62  60  93 W3        29.94R

$$



USA.gov is the U.S. government's official web portal to all federal, state and local government web resources and services.